Tracking 30157 objects as of 12-Feb-2025
HD Live streaming from Space Station
objects crossing your sky now

SL-12 R/B(2)

Track SL-12 R/B(2) now!


NORAD ID: 25900
Int'l Code: 1999-047E
Perigee: 35,403.8 km
Apogee: 36,260.4 km
Inclination: 14.4 °
Period: 1,438.1 minutes
Semi major axis: 42203 km
RCS: 1.9952 m2 (large)
Launch date: September 6, 1999
Source: Commonwealth of Independent States (former USSR) (CIS)
Launch site: TYURATAM MISSILE AND SPACE COMPLEX (TTMTR)

Note: This is a ROCKET BODY
Your satellite tracking list
Your tracking list is empty




NASA's NSSDC Master Catalog

Two Line Element Set (TLE):
1 25900U 99047E   25043.54261186  .00000022  00000-0  00000-0 0  9996
2 25900  14.4472   2.8889 0101494  51.1491 128.1956  1.00135129 93078
Source of the keplerian elements: AFSPC